Vertical_Velocity
-0 -1 8 9 9 17 7 10 -6 2 5 10 -3 -8 -9 -12 -8 3 -0 -2 0 3 6 -3 3 -8 -2 2 -2 -8 1 3 -0 -9 13 18 8 -7 15 6 -5 2 2 -9
4 2 5 9 12 3 25 -8 16 2 15 -22 -9 9 2 -1 -2 3 2 -4 9 3 9 4 4 4 5 7 -1 -10 -21 -10 -1 -2 6 -10 -10 -8 15 8 5 -5 -0 -12
-4 3 4 6 6 13 7 8 9 11 -11 27 -3 7 -11 -7 -1 -1 5 -14 -0 4 6 4 -5 9 -2 4 10 -13 8 5 -3 -19 -16 -0 5 7 6 8 5 -3 -10 -7
-4 0 9 6 9 16 17 13 -1 -20 -45 -9 7 6 -0 -3 -17 -1 11 -4 -1 3 -2 6 -6 -2 3 5 7 1 5 1 3 -1 1 2 -2 -7 4 0 0 2 -7 2
-6 1 1 11 9 32 -4 -7 -9 3 2 10 14 -8 -30 -15 -1 1 -5 -10 -3 6 -3 -1 1 4 -5 -2 2 -1 -11 -10 -1 2 3 -0 2 -1 -2 1 3 -2 -1 -5
-6 -1 7 4 9 32 -16 13 5 11 3 5 6 -22 -13 -14 9 -1 5 -19 11 7 -12 7 4 14 2 1 -5 2 2 -1 0 -4 2 -1 2 -12 3 -3 -2 8 -0 -4
-3 -1 11 4 3 25 -6 15 17 10 -3 -0 8 -4 -9 -9 -26 -4 -9 5 7 -5 7 5 6 7 7 14 4 4 -8 1 3 -2 2 -3 -8 -3 0 4 -2 -1 -1 -2
-3 -2 -11 4 -7 24 -11 25 -4 8 1 9 -9 1 11 2 -8 -8 4 13 -3 17 12 8 9 6 14 5 5 2 -0 -3 -2 -3 -1 -5 -5 2 1 -5 -0 -0 1 1
-0 -11 -11 17 3 18 -1 19 19 3 1 -18 11 -8 -9 -16 -17 10 -5 10 -3 24 -12 9 -1 -4 0 2 2 -0 -0 2 6 -0 -1 -4 -6 -0 5 4 2 -0 -1 2
-5 -5 -0 21 7 15 -16 17 0 29 -7 -1 -16 -14 -14 12 -0 6 -2 -8 -6 16 2 6 1 -3 -2 -3 -5 -10 -3 5 -2 0 -1 -6 -5 -0 4 7 -12 -1 1 -2
-5 -3 -3 17 4 -4 -33 2 14 -9 1 -8 2 8 -9 -8 -2 -0 -3 19 2 11 11 13 -1 4 0 3 3 -7 -6 -1 -4 3 2 -15 -2 8 3 -4 -1 1 0 -1
-2 9 -18 23 5 -6 -11 5 24 13 13 8 6 0 -6 3 35 8 -3 2 -8 -8 0 5 3 -1 6 -1 -5 -2 -0 -16 -12 -10 -3 -7 -5 -0 1 -1 -3 -3 1 1
-1 -17 17 10 0 -4 -6 2 18 3 -18 5 -2 3 -7 5 10 14 3 2 9 3 1 -3 17 -5 4 -6 -5 5 0 -6 -2 0 -3 -8 -5 -4 -1 -2 -1 -0 2 -1
-10 6 7 12 2 1 0 -5 20 10 41 4 2 -0 2 -2 6 14 5 5 5 1 4 6 -2 -14 -3 3 1 -3 -2 3 -1 -4 -0 -4 -5 -5 -2 -0 1 1 2 -0
11 6 -1 -3 3 -0 0 1 18 15 -32 7 3 3 0 9 3 4 18 7 2 12 8 4 -3 4 8 -1 3 4 -5 -9 -16 -11 3 -0 1 -2 -1 3 3 2 -0 -2
1 0 4 1 -1 -4 0 -21 -4 15 -1 -1 -3 -2 -6 6 -0 0 -19 -37 45 15 12 -3 5 13 13 -2 -4 -6 3 -0 3 1 3 1 -0 3 4 7 3 -0 -2 -1
3 -1 -3 2 5 -8 14 -3 3 23 8 9 -17 -1 11 8 2 8 29 13 -4 -17 -3 -7 -32 11 14 -1 -3 -2 -2 1 -1 1 2 0 0 1 2 1 0 -1 -1 -0
-1 -3 3 -1 9 0 4 12 15 6 -11 5 13 -7 14 14 3 0 6 1 -2 3 5 -26 -13 11 10 8 -1 -7 -1 1 2 -5 -3 1 2 3 2 -0 0 1 1 0
-5 -7 2 14 5 -21 -12 11 18 -5 29 20 1 -12 -4 2 0 5 1 -2 4 1 -0 4 14 -2 -5 -11 -1 -3 1 0 2 1 2 2 2 1 -1 -0 4 2 -0 -1
-11 20 14 8 -4 3 11 14 1 14 -12 -3 9 10 -3 -2 -1 1 3 2 -4 -1 -5 4 -3 -3 4 1 1 -1 -3 3 2 1 3 3 -0 -2 1 4 1 1 0 1
19 18 -0 2 -17 8 22 0 11 8 8 6 2 3 2 8 7 4 7 1 3 -2 -2 3 1 -3 0 1 1 3 4 2 -1 0 3 -1 3 1 -0 2 1 1 1 0
3 7 -3 14 2 10 17 23 9 -2 -2 -5 2 -5 -3 -4 -3 -4 -1 -1 -2 3 -0 2 -4 -10 -0 1 2 0 4 3 -1 2 7 4 1 1 1 1 2 1 -0 -1
21 3 -9 -11 -1 1 -4 -2 2 4 2 -4 -6 -5 -0 1 1 2 -1 -7 -2 -3 2 -0 -6 -4 1 3 1 -5 -3 4 4 3 1 -0 -0 1 2 1 1 1 1 -0
5 6 4 -3 3 1 -1 -3 -1 -2 1 6 7 -1 -6 -1 -1 2 -5 1 4 3 -1 -4 1 -0 5 -6 -8 1 2 3 3 3 0 0 1 1 2 2 2 1 0 0
5 15 -4 1 0 3 -1 0 0 2 -0 1 -1 2 2 -5 -6 -10 6 4 -7 -4 -2 2 -5 0 -4 3 4 3 -0 1 2 2 4 4 4 2 0 1 1 0 1 -0
-9 -15 -7 5 0 -1 4 5 6 -0 -1 -1 -1 -2 -1 -1 2 4 3 -2 -1 -0 -3 1 -0 2 2 2 0 -3 -3 1 3 4 3 1 1 1 0 -0 0 1 1 -0
-3 -6 -2 -7 -1 -1 0 1 0 0 1 -2 -1 1 -1 2 1 -0 -1 -2 -1 0 0 -1 -1 -1 0 1 -1 -2 0 2 1 2 2 1 -0 0 -0 0 1 1 -0 -1
Height
2911 2922 2937 2955 2973 2989 3001 3012 3019 3027 3040 3045 3043 3043 3050 3060 3066 3072 3075 3077 3080 3083 3086 3087 3090 3093 3095 3096 3098 3101 3105 3108 3109 3109 3107 3108 3110 3111 3113 3113 3114 3112 3110 3110
2896 2908 2923 2938 2956 2972 2986 2998 3011 3018 3030 3029 3029 3037 3044 3052 3058 3064 3070 3073 3077 3080 3082 3084 3085 3089 3091 3093 3094 3097 3102 3105 3105 3105 3107 3107 3106 3107 3108 3108 3108 3107 3108 3107
2884 2896 2912 2927 2943 2961 2975 2989 2999 3009 3014 3017 3023 3029 3035 3042 3052 3057 3063 3067 3071 3074 3077 3080 3082 3084 3087 3089 3090 3093 3099 3099 3100 3101 3102 3104 3104 3103 3104 3104 3103 3102 3101 3102
2874 2886 2902 2918 2932 2951 2963 2976 2984 2986 2993 2997 3010 3022 3030 3034 3041 3048 3059 3062 3065 3070 3072 3075 3078 3079 3082 3086 3087 3090 3093 3094 3097 3098 3099 3099 3098 3099 3100 3099 3099 3098 3098 3096
2864 2878 2891 2906 2923 2941 2951 2961 2972 2982 2988 2997 3004 3011 3014 3024 3036 3042 3048 3055 3061 3065 3067 3072 3075 3076 3078 3081 3084 3085 3089 3092 3094 3094 3094 3094 3094 3094 3095 3095 3095 3094 3094 3093
2856 2870 2883 2898 2912 2929 2934 2950 2966 2976 2983 2988 2996 2991 3006 3016 3032 3037 3044 3053 3058 3059 3063 3068 3072 3073 3075 3078 3079 3081 3084 3087 3089 3088 3089 3089 3088 3088 3089 3089 3090 3088 3087 3087
2849 2862 2875 2889 2904 2917 2930 2942 2959 2966 2972 2979 2981 2995 3004 3010 3020 3029 3038 3047 3052 3058 3061 3064 3067 3069 3071 3073 3074 3075 3078 3082 3085 3086 3087 3087 3082 3082 3082 3082 3082 3081 3082 3082
2844 2856 2869 2880 2897 2910 2926 2938 2952 2960 2969 2976 2984 2990 2999 3009 3019 3025 3032 3041 3049 3054 3058 3059 3061 3063 3065 3066 3068 3071 3073 3077 3081 3083 3083 3081 3079 3080 3079 3078 3080 3079 3080 3080
2839 2852 2865 2873 2891 2904 2919 2931 2948 2957 2964 2966 2980 2990 2995 3001 3009 3021 3024 3034 3041 3047 3050 3053 3053 3055 3059 3062 3064 3067 3071 3073 3077 3078 3079 3079 3075 3073 3074 3076 3076 3075 3077 3078
2835 2847 2860 2868 2887 2899 2914 2928 2943 2949 2957 2967 2975 2980 2989 2998 3006 3012 3020 3027 3034 3038 3041 3046 3049 3050 3055 3056 3057 3062 3066 3068 3070 3071 3072 3071 3073 3073 3072 3072 3075 3073 3073 3074
2833 2843 2852 2866 2884 2898 2912 2924 2937 2952 2958 2965 2970 2979 2984 2995 2999 3003 3011 3023 3025 3030 3037 3041 3044 3044 3047 3051 3053 3055 3059 3063 3064 3068 3067 3067 3065 3067 3067 3067 3068 3069 3070 3070
2830 2841 2852 2867 2883 2897 2913 2919 2935 2945 2952 2962 2966 2972 2978 2986 2997 3002 3009 3014 3019 3024 3031 3032 3037 3041 3041 3044 3047 3050 3054 3055 3057 3061 3060 3060 3061 3062 3064 3064 3064 3066 3067 3066
2828 2840 2856 2871 2884 2897 2908 2920 2935 2945 2952 2961 2966 2971 2974 2979 2988 2998 3004 3009 3015 3019 3025 3031 3035 3037 3037 3039 3042 3045 3047 3050 3052 3055 3055 3055 3058 3059 3060 3061 3061 3062 3061 3060
2834 2846 2860 2874 2886 2897 2911 2919 2931 2944 2951 2958 2964 2968 2972 2976 2983 2992 3000 3009 3013 3016 3022 3024 3026 3032 3035 3035 3037 3039 3041 3043 3047 3048 3048 3050 3053 3054 3055 3056 3057 3057 3058 3057
2840 2853 2865 2878 2887 2898 2910 2920 2932 2947 2957 2957 2960 2964 2969 2974 2981 2990 2998 3002 3005 3010 3014 3019 3024 3028 3029 3029 3033 3034 3034 3036 3039 3039 3043 3045 3047 3048 3050 3051 3051 3051 3051 3051
2848 2859 2869 2877 2886 2898 2909 2916 2928 2939 2948 2956 2959 2963 2966 2972 2978 2986 2989 2992 2999 3004 3007 3011 3016 3020 3022 3023 3025 3029 3032 3033 3037 3038 3039 3041 3043 3044 3045 3045 3045 3044 3044 3043
2854 2863 2872 2879 2887 2897 2905 2922 2938 2943 2948 2955 2959 2959 2963 2966 2974 2982 2988 2991 2993 2999 3003 3008 3012 3019 3016 3016 3018 3023 3026 3029 3032 3034 3035 3037 3038 3038 3039 3039 3038 3037 3036 3036
2860 2868 2875 2882 2891 2903 2913 2928 2934 2942 2951 2950 2952 2954 2957 2963 2970 2977 2983 2987 2992 2995 2996 3001 3006 3010 3011 3011 3014 3019 3022 3024 3026 3027 3029 3030 3031 3031 3031 3031 3031 3030 3030 3029
2866 2874 2881 2888 2896 2906 2919 2928 2933 2941 2943 2946 2948 2950 2956 2961 2968 2974 2981 2985 2989 2995 2997 3001 3004 3005 3003 3006 3011 3014 3015 3017 3019 3021 3023 3023 3024 3024 3024 3023 3024 3024 3023 3022
2871 2875 2885 2895 2900 2907 2922 2929 2931 2935 2940 2945 2946 2950 2954 2961 2966 2972 2980 2982 2987 2988 2992 2994 2994 2995 2998 3000 3004 3006 3008 3010 3012 3013 3015 3016 3017 3017 3016 3017 3017 3016 3016 3015
2872 2882 2887 2898 2905 2912 2924 2925 2929 2934 2939 2942 2946 2950 2954 2959 2964 2969 2974 2976 2979 2982 2984 2987 2985 2987 2991 2994 2997 2999 3002 3003 3005 3006 3007 3008 3009 3009 3010 3010 3010 3010 3010 3010
2881 2890 2897 2905 2915 2923 2926 2923 2927 2932 2935 2938 2943 2948 2953 2956 2961 2964 2968 2972 2975 2974 2975 2979 2977 2982 2985 2988 2989 2991 2994 2996 2997 2999 3000 3001 3001 3002 3003 3003 3004 3005 3005 3005
2893 2897 2905 2912 2916 2918 2920 2921 2924 2927 2929 2933 2938 2944 2948 2953 2957 2960 2964 2964 2967 2970 2971 2971 2973 2975 2978 2980 2983 2986 2988 2989 2990 2992 2993 2994 2995 2996 2998 2998 2999 3000 3001 3001
2893 2897 2903 2909 2913 2916 2919 2921 2924 2927 2930 2933 2937 2942 2947 2949 2955 2957 2959 2961 2963 2964 2966 2968 2970 2973 2974 2977 2980 2982 2984 2986 2986 2987 2988 2989 2991 2992 2993 2994 2995 2996 2996 2997
2898 2900 2905 2910 2913 2915 2919 2922 2925 2927 2930 2934 2938 2944 2948 2950 2954 2956 2957 2957 2960 2961 2962 2964 2967 2969 2971 2972 2974 2977 2979 2981 2982 2983 2985 2986 2987 2988 2989 2990 2991 2992 2992 2992
2902 2906 2908 2911 2917 2920 2921 2924 2927 2930 2932 2936 2941 2945 2948 2950 2951 2952 2951 2954 2955 2957 2959 2961 2962 2964 2967 2969 2972 2974 2975 2977 2979 2981 2981 2982 2983 2985 2985 2986 2987 2988 2988 2987
2907 2910 2912 2915 2918 2920 2923 2925 2928 2931 2935 2937 2941 2944 2945 2947 2947 2949 2950 2951 2953 2955 2956 2959 2961 2963 2965 2966 2968 2970 2972 2974 2976 2977 2979 2979 2980 2981 2982 2982 2983 2983 2982 2981